Regional Weather Roundup
Issued by NWS

Home | Current Version | Previous Version | Graphics & Text | Print | Product List | Glossary On
Versions: 1 2 3 4 5 6 7 8 9 10 11 12 13 14 15 16 17 18 19 20 21 22 23 24 25 26 27 28 29 30 31 32 33 34 35 36 37 38 39 40 41 42 43 44 45 46 47 48 49 50
000
ASUS43 KFSD 272102
RWRSD

WEATHER ROUNDUP FOR SOUTH DAKOTA
NATIONAL WEATHER SERVICE SIOUX FALLS SD
300 PM CST SAT DEC 27 2014

NOTE: "FAIR" INDICATES FEW OR NO CLOUDS BELOW 12,000 FEET WITH NO
SIGNIFICANT WEATHER AND/OR OBSTRUCTIONS TO VISIBILITY.


SDZ001>005-009-010-012>017-272200-
NORTHWEST AND NORTH CENTRAL SOUTH DAKOTA

CITY           SKY/WX    TMP DP  RH WIND       PRES   REMARKS
BUFFALO          N/A     29  16  58 W17       29.92S WCI  17
FAITH            N/A     28  16  60 SW16      30.00F WCI  16
MOBRIDGE       SUNNY     28  19  69 S7        30.00F WCI  21
$$

SDZ012>016-024>037-041>051-057-063-072>074-272200-
SOUTHWEST AND SOUTH CENTRAL SOUTH DAKOTA

CITY           SKY/WX    TMP DP  RH WIND       PRES   REMARKS
RAPID CTY ARPT SUNNY     22  14  71 E3        30.03F
PIERRE         SUNNY     26  18  71 SW10      30.08F WCI  16
CUSTER         MOSUNNY   22   8  55 W12       29.92F WCI  10
ELLSWORTH AFB  SUNNY     24  14  65 SW3       30.01F
PHILIP         SUNNY     25  16  68 W12       30.08F WCI  14
PINE RIDGE     SUNNY     25  13  60 SW8       30.06F WCI  16
WINNER         FAIR      24  15  68 W10       30.12F WCI  14
$$

SDZ004>011-016>023-039-040-272200-
NORTHEAST SOUTH DAKOTA

CITY           SKY/WX    TMP DP  RH WIND       PRES   REMARKS
ABERDEEN       SUNNY     27  18  69 SW10      30.07F WCI  17
WATERTOWN      CLOUDY    17  12  80 W12       30.06F WCI   4
SISSETON         N/A     24  16  71 W7        30.05F WCI  16
$$

SDZ017-020-022-023-036>040-048>070-272200-
SOUTHEAST SOUTH DAKOTA

CITY           SKY/WX    TMP DP  RH WIND       PRES   REMARKS
SIOUX FALLS    SUNNY     15   9  76 W7        30.14F WCI   5
HURON          CLOUDY    19  12  74 SW5       30.12F WCI  12
MITCHELL       SUNNY     21  13  71 SW7       30.15F WCI  12
YANKTON        SUNNY     19  12  73 W8        30.19S WCI   9
$$

ABBREVIATIONS USED IN REMARKS
   TC - TEMPERATURE IN CELSIUS
  WCI - WIND CHILL INDEX
   HX - HEAT INDEX
  VSB - VISIBILITY




USA.gov is the U.S. government's official web portal to all federal, state and local government web resources and services.